[[{"header":{"parameterUnit":"m.s-1","parameterCategory":1,"la1":30.2991,"la2":30.254,"lo1":-89.0895,"lo2":-89.0444,"dy":0.0017,"dx":0.0017,"nx":28,"ny":28,"refTime":"2023-10-01T03:00:00:Z","depth":0,"parameterNumber":2,"parameterNumberName":"U-component_of_WINDS"},"data":[0,0,0,0,0,0,0,0,0,0,0,0,0,0,0,0,0,0,0,0,0,0,0,0,0,0,0,0,0,0,0,0,0,0,0,0,0,0,0,0,0,0,0,0,0,0,0,0,0,0,0,0,0,0,0,0,0,0,-4.5541,-4.5543,0,-4.5702,-4.5703,-4.5705,-4.5612,-4.5608,-4.5603,-4.5599,-4.5767,-4.5775,-4.5784,0,0,0,0,0,0,0,0,0,0,0,0,0,-4.5158,-4.5165,-4.5541,-4.5543,-4.5545,-4.5701,-4.5704,-4.5706,-4.5613,-4.5607,-4.5602,-4.5597,-4.5764,-4.5774,-4.5785,0,0,0,0,0,0,0,0,0,0,0,0,0,-4.5322,-4.5168,-4.5541,-4.5517,-4.5517,-4.5701,-4.5704,-4.5706,-4.5614,-4.5607,-4.56,-4.5594,-4.5761,-4.5773,-4.5786,-4.6003,0,0,-4.5826,-4.5832,0,0,0,0,0,0,0,0,-4.5313,-4.5336,-4.5519,-4.5519,-4.5519,-4.563,-4.563,-4.5806,-4.5616,-4.5577,-4.5599,-4.5591,-4.5727,-4.5742,-4.5788,-4.6011,-4.6018,-4.5827,-4.5835,-4.5841,-4.5845,0,0,0,0,0,0,0,-4.5302,-4.5329,-4.5604,-4.5522,-4.5522,-4.55,-4.5516,-4.5663,-4.5689,-4.558,-4.5574,-4.5594,-4.5726,-4.5775,-4.5791,-4.6021,-4.5827,-4.5839,-4.5847,-4.5852,-4.6433,-4.644,0,0,0,0,0,0,-4.5291,-4.532,-4.5599,-4.5609,-4.5397,-4.5513,-4.553,-4.5601,-4.5687,-4.5693,-4.56,-4.5589,-4.5756,-4.5776,-4.5796,-4.6058,-4.5841,-4.5853,-4.5861,-4.6426,-4.6435,-4.6443,0,0,0,0,0,0,-4.5283,-4.5317,-4.5593,-4.5463,-4.5496,-4.5527,-4.5607,-4.5608,-4.5657,-4.5701,-4.5706,-4.5645,-4.5752,-4.5778,-4.5953,-4.6063,-4.5859,-4.5871,-4.6417,-4.6428,-4.6439,-4.6582,0,0,0,0,0,0,-4.5273,-4.5315,-4.5397,-4.5466,-4.5504,-4.5746,-4.5614,-4.5616,-4.568,-4.5667,-4.5745,-4.5752,-4.5748,-4.5934,-4.5966,-4.6077,-4.5881,-4.6407,-4.6422,-4.6435,-4.6568,-4.6597,-4.6622,0,0,0,0,0,-4.526,-4.5431,-4.5401,-4.5436,-4.5606,-4.5752,-4.5774,-4.5766,-4.5689,-4.5772,-4.5801,-4.5749,-4.6045,-4.5953,-4.5988,-4.6105,-4.64,-4.6418,-4.6434,-4.6556,-4.6591,-4.6622,0,0,0,0,0,0,-4.5375,-4.5439,-4.5407,-4.5606,-4.5674,-4.5736,-4.5841,-4.5804,-4.5896,-4.5881,-4.5868,-4.5886,-4.6069,-4.6104,-4.6,-4.632,-4.6211,-4.6236,-4.6291,-4.6325,-4.6352,-4.6341,-4.5892,0,0,0,0,0,-4.5423,-4.5535,-4.5586,-4.5756,-4.5792,-4.5811,-4.5874,-4.5862,-4.5933,-4.5961,-4.6002,-4.6075,-4.6184,-4.6256,-4.6359,-4.6572,-4.6589,-4.667,-4.6697,-4.6719,-4.6741,-4.6859,-4.6897,-4.6499,-4.6499,-4.6499,0,0,-4.5525,-4.5574,-4.5645,-4.5781,-4.5832,-4.595,-4.5836,-4.5965,-4.6053,-4.5981,-4.6149,-4.6182,-4.6262,-4.6457,-4.6545,-4.6492,-4.6855,-4.6741,-4.6758,-4.6769,-4.6881,-4.6918,-4.6952,-4.6511,-4.6509,-4.6507,0,0,-4.577,-4.5818,-4.5966,-4.602,-4.6099,-4.6111,-4.6147,-4.6215,-4.6234,-4.6402,-4.6351,-4.6456,-4.6644,-4.6703,-4.6758,-4.7028,-4.6985,-4.7061,-4.7204,-4.7319,-4.7351,-4.7378,-4.7477,-4.7512,-4.7083,-4.7084,-4.7084,0,-4.5887,-4.6061,-4.6047,-4.6181,-4.6243,-4.6182,-4.6334,-4.6387,-4.6497,-4.6542,-4.6479,-4.6715,-4.6764,-4.6974,-4.704,-4.7085,-4.7128,-4.7053,-4.7347,-4.7375,-4.7401,-4.7495,-4.7531,-4.7093,-4.7092,-4.7091,-4.709,0,-4.6202,-4.6324,-4.6434,-4.6541,-4.6615,-4.6757,-4.6766,-4.6843,-4.6824,-4.6843,-4.7016,-4.7073,-4.7187,-4.7236,-4.7219,-4.7445,-4.7409,-4.7348,-4.7238,-4.7448,-4.7536,-4.7572,-4.7105,-4.7102,-4.71,-4.7097,0,0,-4.6526,-4.6623,-4.6664,-4.6713,-4.6796,-4.6891,-4.7031,-4.7141,-4.7209,-4.7287,-4.7405,-4.7566,-4.751,-4.7573,-4.7562,-4.7663,-4.7876,-4.7589,-4.7591,-4.7643,-4.8131,-4.8179,-4.822,-4.7847,-4.7854,-4.7859,-4.8125,0,-4.6778,-4.7022,-4.7013,-4.7241,-4.7355,-4.73,-4.7422,-4.7487,-4.7509,-4.761,-4.7633,-4.7749,-4.7664,-4.7702,-4.7799,-4.783,-4.7974,-4.781,-4.796,-4.7966,-4.7944,-4.8266,-4.8316,-4.8565,-4.8159,-4.8165,-4.8169,0,-4.7106,-4.7194,-4.7433,-4.7501,-4.7549,-4.7659,-4.7761,-4.7857,-4.7931,-4.794,-4.801,-4.7984,-4.8128,-4.8012,-4.8212,-4.8101,-4.8161,-4.8186,-4.8195,-4.8211,-4.8082,-4.8293,-4.8643,-4.8682,-4.8223,-4.8219,-4.8215,0,-4.7321,-4.75,-4.7666,-4.7709,-4.7792,-4.7871,-4.791,-4.7977,-4.8045,-4.8134,-4.8179,-4.8284,-4.8343,-4.8426,-4.843,-4.8345,-4.8633,-4.8517,-4.8646,-4.8646,-4.8711,-4.8707,-4.9079,-4.8746,-4.8746,-4.8745,-4.8744,0,-4.7605,-4.7755,-4.7764,-4.7867,-4.8033,-4.8023,-4.8188,-4.8219,-4.8279,-4.8389,-4.8347,-4.8451,-4.8448,-4.8555,-4.8558,-4.8725,-4.8751,-4.8764,-4.8764,-4.8769,-4.8768,-4.881,-4.8794,-4.8755,-4.8753,-4.8751,-4.8749,0,-4.7875,-4.7887,-4.8065,-4.8129,-4.8149,-4.8269,-4.8325,-4.8424,-4.8441,-4.858,-4.8612,-4.864,-4.8764,-4.8775,-4.8918,-4.8921,-4.9123,-4.9103,-4.9098,-4.9095,-4.9225,-4.9214,-4.9639,-4.9695,-4.9324,-4.9327,-4.933,0,-4.8057,-4.817,-4.8246,-4.8316,-4.8359,-4.8472,-4.8541,-4.8535,-4.8609,-4.8703,-4.8791,-4.891,-4.9004,-4.9204,-4.9239,-4.9349,-4.9332,-4.9474,-4.9349,-4.9351,-4.9338,-4.9332,-4.9345,-4.9499,-4.9503,-4.9506,-4.9509,0,-4.8379,-4.838,-4.848,-4.8584,-4.8667,-4.8749,-4.8825,-4.8885,-4.8889,-4.8974,-4.9099,-4.9173,-4.9319,-4.9438,-4.9546,-4.9587,-4.9551,-4.9548,-4.9584,-4.9592,-4.9585,-4.9593,-4.9167,-4.9538,-4.9535,-4.9533,-4.9532,-4.953,-4.8612,-4.8711,-4.878,-4.8894,-4.8951,-4.9023,-4.912,-4.915,-4.9253,-4.9371,-4.9361,-4.9501,-4.9573,-4.9714,-4.9764,-4.9874,-4.9827,-4.9879,-4.9892,-4.9906,-4.992,-4.9566,-4.9893,-4.9892,-4.9892,-4.9891,-4.989,0,-4.8934,-4.8976,-4.9081,-4.9189,-4.9279,-4.9234,-4.9317,-4.9396,-4.9518,-4.9588,-4.9683,-4.9828,-4.9943,-4.9987,-5.0101,-5.0181,-5.0167,-5.0211,-5.0207,-5.0217,-4.9955,-4.9913,-5.0221,-5.0221,-5.0221,-5.0221,-5.022,-5.022,-4.9112,-4.9278,-4.9288,-4.9482,-4.9523,-4.9658,-4.9709,-4.9777,-4.9833,-4.9997,-5.0092,-5.0119,-5.018,-5.0298,-5.0404,-5.0414,-5.0459,-5.0511,-5.0514,-5.0269,-5.0235,-5.0204,-5.0165,-5.052,-5.0521,-5.0768,-5.077,-5.0772]},{"header":{"parameterUnit":"m.s-1","parameterCategory":1,"la1":30.2991,"la2":30.254,"lo1":-89.0895,"lo2":-89.0444,"dy":0.0017,"dx":0.0017,"nx":28,"ny":28,"refTime":"2023-10-01T03:00:00:Z","depth":0,"parameterNumber":3,"parameterNumberName":"V-component_of_WINDS"},"data":[0,0,0,0,0,0,0,0,0,0,0,0,0,0,0,0,0,0,0,0,0,0,0,0,0,0,0,0,0,0,0,0,0,0,0,0,0,0,0,0,0,0,0,0,0,0,0,0,0,0,0,0,0,0,0,0,0,0,-2.3389,-2.3389,0,-2.3376,-2.3376,-2.3375,-2.3333,-2.3332,-2.3331,-2.3331,-2.3316,-2.3317,-2.3317,0,0,0,0,0,0,0,0,0,0,0,0,0,-2.3378,-2.3379,-2.3389,-2.3389,-2.3389,-2.3376,-2.3376,-2.3375,-2.3333,-2.3332,-2.3331,-2.333,-2.3316,-2.3317,-2.3317,0,0,0,0,0,0,0,0,0,0,0,0,0,-2.3376,-2.3379,-2.3389,-2.3367,-2.3364,-2.3376,-2.3376,-2.3375,-2.3334,-2.3332,-2.3331,-2.333,-2.3316,-2.3317,-2.3318,-2.335,0,0,-2.332,-2.332,0,0,0,0,0,0,0,0,-2.3376,-2.3376,-2.337,-2.3368,-2.3366,-2.3355,-2.3366,-2.3367,-2.3334,-2.3345,-2.3331,-2.3329,-2.333,-2.333,-2.333,-2.3349,-2.3349,-2.332,-2.332,-2.3321,-2.3321,0,0,0,0,0,0,0,-2.3376,-2.3376,-2.3384,-2.337,-2.3367,-2.3357,-2.3355,-2.3366,-2.3346,-2.3344,-2.3341,-2.334,-2.3329,-2.333,-2.333,-2.3349,-2.332,-2.332,-2.3321,-2.3321,-2.3392,-2.3393,0,0,0,0,0,0,-2.338,-2.3377,-2.3384,-2.3384,-2.3367,-2.3358,-2.3356,-2.336,-2.3346,-2.3342,-2.3341,-2.3338,-2.3329,-2.3329,-2.3329,-2.3364,-2.3321,-2.3321,-2.3322,-2.339,-2.3392,-2.3394,0,0,0,0,0,0,-2.338,-2.3381,-2.3385,-2.3379,-2.3379,-2.336,-2.3364,-2.336,-2.3361,-2.3343,-2.3339,-2.3346,-2.3328,-2.3328,-2.3345,-2.3363,-2.3322,-2.3322,-2.3389,-2.3391,-2.3393,-2.3437,0,0,0,0,0,0,-2.3379,-2.3381,-2.3393,-2.338,-2.338,-2.3401,-2.3366,-2.3361,-2.3362,-2.3358,-2.3347,-2.3343,-2.3327,-2.3344,-2.3345,-2.3364,-2.3323,-2.3387,-2.339,-2.3392,-2.3434,-2.344,-2.3446,0,0,0,0,0,-2.3379,-2.3407,-2.3394,-2.3395,-2.3395,-2.3402,-2.3402,-2.3383,-2.3364,-2.3376,-2.3365,-2.3344,-2.3362,-2.3346,-2.3347,-2.3366,-2.3385,-2.3389,-2.3392,-2.3431,-2.3439,-2.3446,0,0,0,0,0,0,-2.3423,-2.3405,-2.339,-2.3415,-2.341,-2.3395,-2.341,-2.3392,-2.3393,-2.3389,-2.3365,-2.3363,-2.3382,-2.3376,-2.3359,-2.3396,-2.337,-2.3374,-2.3399,-2.3407,-2.3413,-2.3413,-2.3323,0,0,0,0,0,-2.3435,-2.3443,-2.3427,-2.345,-2.3448,-2.343,-2.3432,-2.3417,-2.3412,-2.341,-2.34,-2.3395,-2.34,-2.3403,-2.3406,-2.3433,-2.3429,-2.3447,-2.3453,-2.3458,-2.3461,-2.3473,-2.348,-2.3404,-2.3404,-2.3404,0,0,-2.3461,-2.3452,-2.3459,-2.3458,-2.3453,-2.3461,-2.3428,-2.3439,-2.3444,-2.3412,-2.3426,-2.3419,-2.3412,-2.3434,-2.3443,-2.3429,-2.3481,-2.3462,-2.3466,-2.3466,-2.3477,-2.3484,-2.3491,-2.3406,-2.3406,-2.3406,0,0,-2.3512,-2.3507,-2.3524,-2.352,-2.3512,-2.3499,-2.3504,-2.3491,-2.3485,-2.3499,-2.3474,-2.3481,-2.3489,-2.3485,-2.3484,-2.3532,-2.3513,-2.3534,-2.3566,-2.3578,-2.3584,-2.3589,-2.3605,-2.3611,-2.3538,-2.3538,-2.3538,0,-2.3545,-2.3556,-2.3535,-2.3547,-2.3547,-2.3518,-2.3535,-2.3531,-2.3526,-2.3526,-2.3511,-2.352,-2.3514,-2.3533,-2.3545,-2.3545,-2.3549,-2.3535,-2.3585,-2.359,-2.3594,-2.3609,-2.3615,-2.354,-2.354,-2.354,-2.354,0,-2.3596,-2.3604,-2.3619,-2.3614,-2.3616,-2.363,-2.3611,-2.3615,-2.3601,-2.3589,-2.3604,-2.3595,-2.3595,-2.3599,-2.3585,-2.3616,-2.3607,-2.3589,-2.3562,-2.3604,-2.3617,-2.3623,-2.3544,-2.3543,-2.3542,-2.3542,0,0,-2.3673,-2.3656,-2.3661,-2.3658,-2.3648,-2.3653,-2.3666,-2.3666,-2.367,-2.3667,-2.3676,-2.3684,-2.3666,-2.3665,-2.365,-2.3661,-2.3698,-2.3641,-2.3641,-2.3651,-2.373,-2.3742,-2.3749,-2.3686,-2.3687,-2.3687,-2.373,0,-2.372,-2.374,-2.3721,-2.3745,-2.3752,-2.3724,-2.3735,-2.373,-2.372,-2.3723,-2.3712,-2.3717,-2.3695,-2.3694,-2.3703,-2.3692,-2.3713,-2.3688,-2.3693,-2.3693,-2.3694,-2.3756,-2.377,-2.381,-2.3735,-2.3736,-2.3736,0,-2.3777,-2.3775,-2.38,-2.3787,-2.3789,-2.3799,-2.3797,-2.3801,-2.3794,-2.3786,-2.3785,-2.3766,-2.3777,-2.3752,-2.3766,-2.375,-2.375,-2.3745,-2.3746,-2.3744,-2.3716,-2.3755,-2.3823,-2.3828,-2.3745,-2.3744,-2.3743,0,-2.3828,-2.3833,-2.3848,-2.3846,-2.3832,-2.3839,-2.3834,-2.3825,-2.3826,-2.3824,-2.3824,-2.3824,-2.3824,-2.3824,-2.3806,-2.3789,-2.3821,-2.3795,-2.3814,-2.3814,-2.382,-2.382,-2.3888,-2.3824,-2.3824,-2.3824,-2.3824,0,-2.3881,-2.3897,-2.3871,-2.388,-2.3896,-2.3874,-2.3891,-2.3883,-2.3875,-2.3882,-2.3858,-2.3865,-2.3841,-2.3845,-2.3831,-2.3844,-2.3844,-2.3837,-2.3833,-2.3838,-2.3839,-2.3837,-2.3833,-2.3825,-2.3825,-2.3825,-2.3825,0,-2.3941,-2.3924,-2.3938,-2.3923,-2.392,-2.3932,-2.3919,-2.3927,-2.3915,-2.3923,-2.3924,-2.3906,-2.3909,-2.3891,-2.3891,-2.3882,-2.3901,-2.3893,-2.3903,-2.39,-2.3919,-2.3917,-2.3987,-2.3994,-2.3927,-2.3928,-2.3929,0,-2.3974,-2.3986,-2.3972,-2.3974,-2.397,-2.3974,-2.3975,-2.3954,-2.3955,-2.3948,-2.3956,-2.3957,-2.3957,-2.3963,-2.395,-2.3949,-2.394,-2.3965,-2.394,-2.3944,-2.3938,-2.3937,-2.3937,-2.3969,-2.397,-2.3971,-2.3971,0,-2.4036,-2.4027,-2.4028,-2.4027,-2.4028,-2.4026,-2.4023,-2.4026,-2.4003,-2.4006,-2.4009,-2.4009,-2.4009,-2.401,-2.4007,-2.4,-2.3982,-2.3979,-2.3983,-2.3988,-2.3993,-2.3989,-2.3915,-2.3978,-2.3977,-2.3976,-2.3976,-2.3976,-2.4082,-2.409,-2.4081,-2.4084,-2.4079,-2.4076,-2.4081,-2.407,-2.4072,-2.407,-2.4058,-2.4063,-2.4055,-2.4049,-2.4044,-2.4047,-2.4035,-2.4042,-2.4043,-2.4044,-2.4047,-2.3994,-2.4047,-2.4047,-2.4047,-2.4046,-2.4046,0,-2.4141,-2.4133,-2.4136,-2.4131,-2.4133,-2.4116,-2.4111,-2.4113,-2.4117,-2.4112,-2.4112,-2.4114,-2.4115,-2.4102,-2.4101,-2.4105,-2.4097,-2.4106,-2.4104,-2.4103,-2.4058,-2.4054,-2.4113,-2.4113,-2.4113,-2.4113,-2.4113,-2.4113,-2.4171,-2.4183,-2.4173,-2.4182,-2.4175,-2.4179,-2.4178,-2.4175,-2.417,-2.4174,-2.4174,-2.4165,-2.4156,-2.4154,-2.4154,-2.415,-2.415,-2.4161,-2.4154,-2.4113,-2.4106,-2.41,-2.4096,-2.4162,-2.4162,-2.4198,-2.4198,-2.4198]}]]